When you browse on this site, cookies collect data to enhance your experience and personalize the content and advertising you see.
Visit our Privacy Policy to learn more. By continuing to use the site, you agree to this use of cookies and data.
  • In Hungary
  • List of Countries
  • For 7 days
  • Water Temperature
  • Weather Map
  • News
  • Weather Widgets
  • user-avatar
    Login

    Hourly Weather Kagal

    Today, 9 April, Thursday

    Time Temperature Precipitation Wind Pressure Humidity
    00:00 +24°C° 0 mm 2 mps 711 mmHg 58%
    01:00 +23°C° 0 mm 2 mps 711 mmHg 59%
    02:00 +23°C° 0 mm 2 mps 711 mmHg 60%
    03:00 +23°C° 0 mm 1 mps 711 mmHg 60%
    04:00 +22°C° 0 mm 1 mps 711 mmHg 59%
    05:00 +22°C° 0 mm 1 mps 711 mmHg 61%
    06:00 +24°C° 0 mm 1 mps 712 mmHg 52%
    07:00 +27°C° 0 mm 1 mps 712 mmHg 44%
    08:00 +29°C° 0 mm 1 mps 713 mmHg 35%
    09:00 +32°C° 0 mm 2 mps 713 mmHg 29%
    10:00 +36°C° 0 mm 2 mps 713 mmHg 23%
    11:00 +38°C° 0 mm 3 mps 714 mmHg 16%
    12:00 +39°C° 0 mm 2 mps 713 mmHg 15%
    13:00 +40°C° 0 mm 1 mps 712 mmHg 13%
    14:00 +41°C° 0 mm 1 mps 711 mmHg 12%
    15:00 +40°C° 0 mm 2 mps 711 mmHg 14%
    16:00 +40°C° 0 mm 4 mps 710 mmHg 17%
    17:00 +39°C° 0 mm 5 mps 710 mmHg 19%
    18:00 +35°C° 0 mm 5 mps 710 mmHg 28%
    19:00 +32°C° 0 mm 4 mps 710 mmHg 38%
    20:00 +28°C° 0 mm 4 mps 710 mmHg 48%
    21:00 +27°C° 0 mm 3 mps 711 mmHg 51%
    22:00 +26°C° 0 mm 2 mps 711 mmHg 55%
    23:00 +25°C° 0 mm 2 mps 711 mmHg 58%

    Tomorrow, 10 April, Friday

    Time Temperature Precipitation Wind Pressure Humidity
    00:00 +25°C° 0 mm 1 mps 711 mmHg 56%
    01:00 +24°C° 0 mm 1 mps 710 mmHg 55%
    02:00 +24°C° 0 mm 1 mps 709 mmHg 54%
    03:00 +24°C° 0 mm 1 mps 710 mmHg 50%
    04:00 +25°C° 0 mm 1 mps 710 mmHg 46%
    05:00 +25°C° 0 mm 1 mps 710 mmHg 43%
    06:00 +28°C° 0 mm 1 mps 711 mmHg 37%
    07:00 +30°C° 0 mm 1 mps 712 mmHg 31%
    08:00 +32°C° 0 mm 2 mps 713 mmHg 25%
    09:00 +35°C° 0 mm 2 mps 713 mmHg 21%
    10:00 +38°C° 0 mm 2 mps 713 mmHg 18%
    11:00 +40°C° 0 mm 3 mps 713 mmHg 14%
    12:00 +41°C° 0 mm 2 mps 712 mmHg 13%
    13:00 +42°C° 0 mm 1 mps 711 mmHg 11%
    14:00 +43°C° 0 mm 1 mps 710 mmHg 10%
    15:00 +42°C° 0 mm 3 mps 710 mmHg 15%
    16:00 +40°C° 0 mm 4 mps 710 mmHg 20%
    17:00 +38°C° 0 mm 6 mps 709 mmHg 24%
    18:00 +35°C° 0 mm 5 mps 710 mmHg 32%
    19:00 +32°C° 0 mm 4 mps 710 mmHg 40%
    20:00 +29°C° 0 mm 3 mps 711 mmHg 47%
    21:00 +28°C° 0 mm 3 mps 711 mmHg 49%
    22:00 +27°C° 0 mm 2 mps 712 mmHg 51%
    23:00 +27°C° 0 mm 1 mps 712 mmHg 53%

    Day after tomorrow, 11 April, Saturday

    Time Temperature Precipitation Wind Pressure Humidity
    00:00 +27°C° 0 mm 1 mps 711 mmHg 52%
    01:00 +26°C° 0 mm 1 mps 711 mmHg 52%
    02:00 +26°C° 0 mm 1 mps 711 mmHg 52%
    03:00 +25°C° 0 mm 1 mps 711 mmHg 51%
    04:00 +25°C° 0 mm 1 mps 711 mmHg 51%
    05:00 +25°C° 0 mm 1 mps 711 mmHg 50%
    06:00 +27°C° 0 mm 1 mps 711 mmHg 43%
    07:00 +29°C° 0 mm 1 mps 712 mmHg 36%
    08:00 +32°C° 0 mm 1 mps 713 mmHg 30%
    09:00 +35°C° 0 mm 1 mps 713 mmHg 25%
    10:00 +37°C° 0 mm 1 mps 713 mmHg 21%
    11:00 +41°C° 0 mm 1 mps 713 mmHg 16%
    12:00 +41°C° 0 mm 1 mps 713 mmHg 15%
    13:00 +41°C° 0 mm 2 mps 712 mmHg 14%
    14:00 +41°C° 0 mm 2 mps 711 mmHg 13%
    15:00 +40°C° 0 mm 3 mps 711 mmHg 17%
    16:00 +39°C° 0 mm 3 mps 710 mmHg 20%
    17:00 +38°C° 0 mm 4 mps 710 mmHg 24%
    18:00 +36°C° 0 mm 4 mps 711 mmHg 34%
    19:00 +33°C° 0 mm 3 mps 711 mmHg 43%
    20:00 +30°C° 0 mm 3 mps 712 mmHg 52%
    21:00 +29°C° 0 mm 2 mps 712 mmHg 54%
    22:00 +28°C° 0 mm 1 mps 712 mmHg 56%
    23:00 +28°C° 0 mm 1 mps 712 mmHg 57%

    12 April, Sunday

    Time Temperature Precipitation Wind Pressure Humidity
    00:00 +27°C° 0 mm 1 mps 711 mmHg 56%
    01:00 +27°C° 0 mm 1 mps 711 mmHg 54%
    02:00 +27°C° 0 mm 1 mps 710 mmHg 53%
    03:00 +26°C° 0 mm 1 mps 710 mmHg 52%
    04:00 +26°C° 0 mm 1 mps 710 mmHg 51%
    05:00 +25°C° 0 mm 1 mps 710 mmHg 50%
    06:00 +28°C° 0 mm 1 mps 711 mmHg 44%
    07:00 +30°C° 0 mm 1 mps 712 mmHg 38%
    08:00 +32°C° 0 mm 1 mps 713 mmHg 31%
    09:00 +35°C° 0 mm 1 mps 713 mmHg 26%
    10:00 +36°C° 0 mm 0 mps 713 mmHg 21%
    11:00 +39°C° 0 mm 0 mps 713 mmHg 15%
    12:00 +41°C° 0 mm 1 mps 712 mmHg 15%
    13:00 +41°C° 0 mm 1 mps 711 mmHg 15%
    14:00 +40°C° 0 mm 1 mps 710 mmHg 15%
    15:00 +39°C° 0 mm 2 mps 710 mmHg 21%
    16:00 +38°C° 0 mm 3 mps 710 mmHg 26%
    17:00 +37°C° 0 mm 4 mps 710 mmHg 31%
    18:00 +35°C° 0 mm 4 mps 710 mmHg 42%
    19:00 +31°C° 0 mm 3 mps 710 mmHg 53%
    20:00 +29°C° 0 mm 3 mps 710 mmHg 64%
    21:00 +28°C° 0 mm 3 mps 711 mmHg 68%
    22:00 +27°C° 0 mm 2 mps 711 mmHg 72%
    23:00 +26°C° 0 mm 2 mps 711 mmHg 75%

    13 April, Monday

    Time Temperature Precipitation Wind Pressure Humidity
    00:00 +26°C° 0 mm 2 mps 710 mmHg 75%
    01:00 +25°C° 0 mm 1 mps 710 mmHg 74%
    02:00 +25°C° 0 mm 1 mps 709 mmHg 73%
    03:00 +25°C° 0 mm 1 mps 710 mmHg 69%
    04:00 +25°C° 0 mm 1 mps 710 mmHg 66%
    05:00 +25°C° 0 mm 1 mps 710 mmHg 63%
    06:00 +27°C° 0 mm 1 mps 711 mmHg 55%
    07:00 +29°C° 0 mm 1 mps 712 mmHg 46%
    08:00 +31°C° 0 mm 1 mps 713 mmHg 38%
    09:00 +35°C° 0 mm 2 mps 713 mmHg 30%
    10:00 +38°C° 0 mm 2 mps 713 mmHg 23%
    11:00 +41°C° 0 mm 2 mps 713 mmHg 15%
    12:00 +41°C° 0 mm 2 mps 712 mmHg 14%
    13:00 +42°C° 0 mm 2 mps 711 mmHg 12%
    14:00 +43°C° 0 mm 2 mps 710 mmHg 11%
    15:00 +42°C° 0 mm 4 mps 710 mmHg 20%
    16:00 +40°C° 0 mm 6 mps 709 mmHg 28%
    17:00 +36°C° 0 mm 7 mps 709 mmHg 37%
    18:00 +34°C° 0 mm 6 mps 709 mmHg 48%
    19:00 +30°C° 0 mm 5 mps 710 mmHg 59%
    20:00 +28°C° 0 mm 4 mps 710 mmHg 69%
    21:00 +27°C° 0 mm 3 mps 710 mmHg 74%
    22:00 +26°C° 0 mm 3 mps 710 mmHg 79%
    23:00 +25°C° 0 mm 2 mps 710 mmHg 83%

    14 April, Tuesday

    Time Temperature Precipitation Wind Pressure Humidity
    00:00 +24°C° 0 mm 2 mps 710 mmHg 83%
    01:00 +24°C° 0 mm 2 mps 709 mmHg 82%
    02:00 +24°C° 0 mm 2 mps 709 mmHg 82%
    03:00 +24°C° 0 mm 2 mps 709 mmHg 80%
    04:00 +24°C° 0 mm 1 mps 709 mmHg 77%
    05:00 +23°C° 0 mm 1 mps 709 mmHg 75%
    06:00 +26°C° 0 mm 1 mps 710 mmHg 63%
    07:00 +29°C° 0 mm 1 mps 710 mmHg 50%
    08:00 +31°C° 0 mm 1 mps 711 mmHg 38%
    09:00 +35°C° 0 mm 2 mps 712 mmHg 29%
    10:00 +38°C° 0 mm 3 mps 712 mmHg 21%
    11:00 +42°C° 0 mm 4 mps 712 mmHg 12%
    12:00 +43°C° 0 mm 3 mps 711 mmHg 11%
    13:00 +44°C° 0 mm 3 mps 710 mmHg 11%
    14:00 +43°C° 0 mm 2 mps 710 mmHg 10%
    15:00 +42°C° 0 mm 4 mps 709 mmHg 18%
    16:00 +40°C° 0 mm 5 mps 709 mmHg 25%
    17:00 +38°C° 0 mm 6 mps 708 mmHg 33%
    18:00 +34°C° 0 mm 5 mps 709 mmHg 46%
    19:00 +30°C° 0 mm 4 mps 709 mmHg 58%
    20:00 +27°C° 0 mm 3 mps 710 mmHg 71%
    21:00 +27°C° 0 mm 3 mps 710 mmHg 74%
    22:00 +26°C° 0 mm 3 mps 710 mmHg 76%
    23:00 +25°C° 0 mm 2 mps 710 mmHg 79%
    Show more